Voltar ao catálogo

STARLINK-6304

AtivoComunicaçõesVLEO
NORAD 56778·PAYLOAD·🇺🇸 United States

Lançado May 31, 2023 de Vandenberg Space Force Base

Loading…

Próximas Passagens (próximas 24 horas)

TLE

AtualizadoSource: CelesTrak SupGP

Época: Sep 15, 2026, 02:01 UTC

1 56778C 23078M   26258.08451389  .00700230  00000+0  52744-1 0  2586
2 56778  70.0007 207.0564 0003139 272.3792 305.5514 15.02061291    12

Acompanhe STARLINK-6304 em tempo real com AllMySat

Download on the App Store